Dansville, NY

12:43 PM EDT on September 27, 2016 (GMT -0400)
Dansville Municipal

Weather History for KDSV - September, 2013

Change the Weather History Date:

Saturday, September 14, 2013

  Actual Average Record
Temperature  
Mean Temperature 55 °F -  
Max Temperature 64 °F 76 °F 99 °F (1952)
Min Temperature 45 °F 50 °F 33 °F (1963)
Degree Days  
Heating Degree Days 10    
Growing Degree Days 5 (Base 50)    
Moisture  
Dew Point 44 °F    
Average Humidity 76    
Maximum Humidity 96    
Minimum Humidity 40    
Precipitation  
Precipitation 0.04 in - - ()
Sea Level Pressure  
Sea Level Pressure 30.12 in    
Wind  
Wind Speed 8 mph (NW)    
Max Wind Speed 15 mph    
Max Gust Speed -    
Visibility 9 miles    
Events Rain    
Averages and records for this station are not official NWS values.
T = Trace of Precipitation, MM = Missing Value Source: NWS Daily Summary

Daily Weather History Graph

Daily Weather History Graph

Search for Another Location

Airport or City:

Trip Planner

Search our weather history database for the weather conditions in past years. The results will help you decide how hot, cold, wet, or windy it might be!

Date:

Astronomy

Sep. 14, 2013 Rise Set
Actual Time 6:49 AM EDT 7:21 PM EDT
Civil Twilight 6:21 AM EDT 7:50 PM EDT
Nautical Twilight 5:48 AM EDT 8:23 PM EDT
Astronomical Twilight 5:13 AM EDT 8:58 PM EDT
Moon 4:06 PM EDT (9/14) 1:14 AM EDT (9/14)
Length of Visible Light 13h 28m
Length of Day
12h 32m
Waxing Gibbous, 72% of the Moon is Illuminated
Sep 14
Waxing Gibbous
Sep 19
Full
Sep 26
Last Quarter
Oct 4
New
Oct 11
First Quarter

Hourly Weather History & Observations

Time (EDT) Temp. Windchill Dew Point Humidity Pressure Visibility Wind Dir Wind Speed Gust Speed Precip Events Conditions
12:35 AM 50.0 °F - 48.2 °F 94% 30.02 in 2.5 mi NW 15.0 mph - 0.02 in Rain Rain
12:42 AM 50.0 °F - 48.2 °F 94% 30.02 in 3.0 mi NW 11.5 mph - 0.02 in Rain Light Rain
12:54 AM 50.0 °F - 48.9 °F 96% 30.05 in 4.0 mi NW 8.1 mph - 0.03 in Rain Light Rain
1:42 AM 50.0 °F - 48.2 °F 94% 30.03 in 9.0 mi NW 8.1 mph - 0.01 in   Overcast
1:54 AM 50.0 °F - 48.0 °F 93% 30.06 in 10.0 mi NW 6.9 mph - 0.01 in   Overcast
2:54 AM 50.0 °F - 46.9 °F 89% 30.07 in 10.0 mi NW 6.9 mph - N/A   Overcast
3:54 AM 48.9 °F - 46.9 °F 93% 30.08 in 10.0 mi NNW 3.5 mph - N/A   Overcast
4:02 AM 48.2 °F - 46.4 °F 93% 30.05 in 10.0 mi NNW 4.6 mph - N/A   Overcast
4:54 AM 50.0 °F - 46.9 °F 89% 30.09 in 10.0 mi Calm Calm - N/A   Overcast
5:54 AM 48.9 °F - 46.9 °F 93% 30.10 in 10.0 mi Calm Calm - N/A   Overcast
6:54 AM 50.0 °F - 46.9 °F 89% 30.12 in 10.0 mi NNW 3.5 mph - N/A   Overcast
7:54 AM 48.9 °F - 45.0 °F 86% 30.14 in 10.0 mi NW 3.5 mph - N/A   Overcast
8:54 AM 50.0 °F - 43.0 °F 77% 30.15 in 10.0 mi Calm Calm - N/A   Overcast
9:54 AM 52.0 °F - 43.0 °F 71% 30.17 in 10.0 mi NW 6.9 mph - N/A   Overcast
10:54 AM 53.1 °F - 41.0 °F 64% 30.17 in 10.0 mi NW 6.9 mph - N/A   Overcast
11:54 AM 57.0 °F - 41.0 °F 55% 30.16 in 10.0 mi North 9.2 mph - N/A   Mostly Cloudy
12:54 PM 57.9 °F - 39.9 °F 51% 30.16 in 10.0 mi Calm Calm - N/A   Partly Cloudy
1:54 PM 59.0 °F - 41.0 °F 51% 30.14 in 10.0 mi North 6.9 mph - N/A   Partly Cloudy
2:54 PM 61.0 °F - 42.1 °F 50% 30.13 in 10.0 mi North 4.6 mph - N/A   Clear
3:54 PM 64.0 °F - 42.1 °F 45% 30.11 in 10.0 mi NNW 10.4 mph - N/A   Clear
4:54 PM 64.0 °F - 39.0 °F 40% 30.11 in 10.0 mi WNW 11.5 mph - N/A   Clear
5:54 PM 63.0 °F - 39.0 °F 41% 30.13 in 10.0 mi NW 10.4 mph - N/A   Clear
6:54 PM 59.0 °F - 39.0 °F 48% 30.14 in 10.0 mi NW 4.6 mph - N/A   Clear
7:54 PM 53.1 °F - 43.0 °F 69% 30.16 in 10.0 mi Calm Calm - N/A   Clear
8:54 PM 48.0 °F - 45.0 °F 89% 30.18 in 10.0 mi SE 3.5 mph - N/A   Clear
9:54 PM 46.9 °F - 44.1 °F 90% 30.20 in 10.0 mi SE 4.6 mph - N/A   Clear
10:54 PM 46.0 °F 43.1 °F 43.0 °F 89% 30.19 in 10.0 mi SSE 5.8 mph - N/A   Clear
11:54 PM 45.0 °F 41.2 °F 42.1 °F 90% 30.20 in 10.0 mi SE 6.9 mph - N/A   Clear